Вернуться в каталог

IRIDE-MS1-EAG2-1

АктивенНаукаSSO
NORAD 66695·PAYLOAD·🇮🇹 Italy

Запущен Nov 28, 2025 с Vandenberg Space Force Base

Loading…

Ближайшие Пролёты (ближайшие 24 часа)

TLE

СвежийSource: Space-Track

Эпоха: Sep 14, 2026, 11:10 UTC

1 66695U 25276AF  26257.46586833  .00003766  00000-0  16932-3 0  9995
2 66695  97.4121 329.9579 0002407  72.0606 288.0893 15.21726691 44013

Отслеживайте IRIDE-MS1-EAG2-1 в реальном времени с AllMySat

Download on the App Store